Location: Newark
(37.7892°N, 97.1083°W)
Time: 02:54:24
(UTC+00:00)

ISS - Pass Details

Date: 03 February 2021
Orbit: 417 x 422 km, 51.6° (Epoch: 03 March)

Event Time Altitude Azimuth Distance (km) Brightness Sun altitude
Rises 02:28:46 0° 304° (NW) 2,374 0.9 -30.9°
Reaches altitude 10° 02:30:55 10° 299° (WNW) 1,506 -0.2 -31.3°
Enters shadow 02:31:01 11° 298° (WNW) 1,466 -0.3 -31.3°
